Challenge Cours la Province !

La Belle Vilersoise à Villers-l'Evêque (11.00 km)

dimanche 10 juin 2018

Vous pouvez trouver Le classement original sur : www.otopservices.be  
CHALLENGE COURS LA PROVINCE
LA BELLE VILLERSOISE - VILLERS-L'EVÊQUE
DISTANCE : 11.0 km
dimanche 10 juin 2018
 
Place dos NOM Catégorie Pl/cat temps temps/km Vitesse
01:00:00              
1 71 PATRICK PHILIPPE VETERAN 1 1 00:37:40 03:26 17.50
2 163 JO VRANCKEN SENIOR H 1 00:38:10 03:28 17.27
3 106 MICHAEL DETRIXHE SENIOR H 2 00:38:43 03:31 17.03
4 65 CARMELO ARGENTO SENIOR H 3 00:41:05 03:44 16.04
5 128 GAETANO VITA VETERAN 1 2 00:42:33 03:52 15.49
6 45 YVES GARIN VETERAN 1 3 00:42:46 03:54 15.41
7 39 OLIVIER HEMMER VETERAN 1 4 00:42:49 03:54 15.40
8 31 PIERRE RESTIGLIAN SENIOR H 4 00:43:12 03:56 15.26
9 82 MARC LEONARD VETERAN 1 5 00:43:26 03:57 15.18
10 96 DIDIER ROCKS SENIOR H 5 00:43:27 03:57 15.17
11 203 FRANCOIS COLIN SENIOR H 6 00:44:04 04:01 14.96
12 36 STÉPHANE CLAJOT VETERAN 1 6 00:44:21 04:02 14.86
13 136 RAPHAEL HENRARD SENIOR H 7 00:44:25 04:03 14.84
14 111 GIULIANO BEONI VETERAN 1 7 00:45:24 04:08 14.52
15 72 IRENE TOSI SENIOR D 1 00:45:41 04:09 14.43
16 20 MICHEL JEUKENS VETERAN 1 8 00:45:41 04:09 14.43
17 171 BASTIEN PIRSON SENIOR H 8 00:46:11 04:12 14.27
18 113 VINCENT DEGUELDRE SENIOR H 9 00:46:22 04:13 14.22
19 26 PHILIPPE ROI VÉTÉRAN 2 1 00:46:35 04:14 14.15
20 88 MICHEL BORGS VÉTÉRAN 2 2 00:46:37 04:15 14.14
21 29 VINCENT DEBIOLLE VÉTÉRAN 2 3 00:46:51 04:16 14.07
22 127 DAVID SERVAIS SENIOR H 10 00:46:54 04:16 14.05
23 17 RENAUD SCHUTZ VETERAN 1 9 00:46:59 04:17 14.03
24 68 VINCENT THONON VETERAN 1 10 00:47:10 04:18 13.98
25 61 EDWIN LOGNARD VETERAN 1 11 00:47:50 04:21 13.78
26 116 VALERY LAMBENNE VETERAN 1 12 00:48:01 04:22 13.73
27 95 JULIEN VERHAEGHE SENIOR H 11 00:48:06 04:23 13.70
28 125 VIVIANE RENARD AINÉE 1 1 00:48:20 04:24 13.64
29 55 DOMINIQUE GILLET VÉTÉRAN 2 4 00:48:20 04:24 13.64
30 92 ROSARIO MARCHIONE VETERAN 3 1 00:48:22 04:24 13.63
31 85 SERGE GILLET VÉTÉRAN 2 5 00:48:22 04:24 13.63
32 141 JEAN-MANUE MARTIN VETERAN 3 2 00:48:30 04:25 13.59
33 50 LAURENT KNAPEN VETERAN 3 3 00:49:00 04:28 13.45
34 77 ANTONIO PIRARD SENIOR H 12 00:49:14 04:29 13.39
35 187 VALERY EVRARD VETERAN 1 13 00:49:16 04:29 13.38
36 118 JUSTINE BOUTANTIN SENIOR D 2 00:49:20 04:29 13.36
37 98 FREDERIC NERI VETERAN 1 14 00:49:34 04:31 13.30
38 230 SAMUEL DE TOFFOL SENIOR H 13 00:50:14 04:34 13.12
39 144 YVES KEIL VETERAN 1 15 00:50:29 04:36 13.06
40 244 THOMAS HAYEN SENIOR H 14 00:50:38 04:37 13.02
41 115 JONATHAN RENSON SENIOR H 15 00:50:47 04:37 12.98
42 40 ADRIEN GRENSON SENIOR H 16 00:50:54 04:38 12.95
43 107 PASCAL COLLARD VÉTÉRAN 2 6 00:51:06 04:39 12.90
44 147 JEREMY JOLIET SENIOR H 17 00:51:22 04:41 12.83
45 80 PIERRE PROFITA SENIOR H 18 00:51:28 04:41 12.81
46 159 PETER DEWAELHEYNS VETERAN 1 16 00:51:59 04:44 12.68
47 179 STIJN MONIQUET SENIOR H 19 00:52:00 04:44 12.68
48 164 VINCENT POLLET VETERAN 1 17 00:52:02 04:44 12.67
49 242 NATHALIE LUCAS SENIOR D 3 00:52:12 04:45 12.63
50 134 XAVIER HEYNS VETERAN 1 18 00:52:12 04:45 12.63
51 225 JORDAN MELON SENIOR H 20 00:52:17 04:46 12.61
52 10 BERTRAND DOCKIER SENIOR H 21 00:52:37 04:47 12.53
53 11 MAUD GUILLIAMS SENIOR D 4 00:52:55 04:49 12.46
54 170 MARTIAL DHEUR VÉTÉRAN 2 7 00:52:58 04:49 12.44
55 206 PHILIPPE GUILLAUME VETERAN 1 19 00:53:18 04:51 12.37
56 38 MARCELLO CARACINI VÉTÉRAN 2 8 00:53:19 04:51 12.36
57 229 LAURENCE MARQUET SENIOR H 22 00:53:24 04:52 12.34
58 199 FRANCOIS MARTINS ESPOIR H 1 00:53:57 04:55 12.22
59 207 BENOIT LAHAYE SENIOR H 23 00:54:50 04:59 12.02
60 70 LAURENT MULLENS VETERAN 1 20 00:55:07 05:01 11.96
61 140 CECILE MAKA AINÉE 1 2 00:55:08 05:01 11.96
62 135 FRANCOIS DAMAN VÉTÉRAN 2 9 00:55:08 05:01 11.96
63 132 DOMINIQUE JAMIN SENIOR H 24 00:55:20 05:02 11.91
64 227 JEROME MELON SENIOR H 25 00:55:27 05:03 11.89
65 46 CAROLINE MERTENS SENIOR D 5 00:55:37 05:04 11.85
66 218 JONATHAN LACRIOLA SENIOR H 26 00:55:49 05:05 11.81
67 30 FREDDY HOUNJE VETERAN 3 4 00:55:49 05:05 11.81
68 13 OLIVIER DETAILLE VETERAN 1 21 00:55:59 05:06 11.77
69 19 CHRISTIAN PARISSE VETERAN 1 22 00:56:30 05:09 11.67
70 142 OLIVIER JACQUIN VETERAN 1 23 00:56:33 05:09 11.66
71 232 LIESBETH VANNESTE SENIOR D 6 00:56:37 05:09 11.64
72 63 DIDIER TONNE VETERAN 1 24 00:56:37 05:09 11.64
73 2 DAVID CRANINX SENIOR H 27 00:56:53 05:11 11.59
74 66 SALVINO D'AMICO VETERAN 1 25 00:56:55 05:11 11.58
75 228 VINCENT COMITO SENIOR H 28 00:57:24 05:13 11.48
76 64 HUGO RADDOUX VETERAN 3 5 00:57:32 05:14 11.46
77 191 MAXIME WILKIN SENIOR H 29 00:57:32 05:14 11.46
78 117 DENIS PONCELET VETERAN 1 26 00:57:56 05:16 11.38
79 151 AXEL KORTSCHINSKI SENIOR H 30 00:57:57 05:16 11.37
80 192 PIERRE DEJOIE SENIOR H 31 00:57:58 05:17 11.37
81 193 FLORIAN ZANZEN SENIOR H 32 00:58:12 05:18 11.33
82 43 YVES LUCAS SENIOR H 33 00:58:30 05:19 11.27
83 200 VINCENT DEJOIE SENIOR H 34 00:58:32 05:20 11.26
84 240 FREDERIC LACROSSE VETERAN 1 27 00:58:38 05:20 11.24
85 166 SANDRINE SEYEN AINÉE 1 3 00:58:38 05:20 11.24
86 32 JULIEN MARIQUE SENIOR H 35 00:58:44 05:21 11.22
87 6 FLORENCE SOMJA SENIOR D 7 00:58:46 05:21 11.22
88 3 CHRISTOPHE BALDEWYNS VETERAN 1 28 00:58:47 05:21 11.21
89 168 OLIVIER VERMOTTE VETERAN 1 29 00:58:47 05:21 11.21
90 120 P-H LUCAS VETERAN 1 30 00:58:49 05:21 11.21
91 245 DANIEL BECKERS VÉTÉRAN 2 10 00:58:50 05:21 11.20
92 239 KARINE DESSAUCY AINÉE 1 4 00:59:05 05:23 11.16
93 238 FRANCIS SATHY VETERAN 1 31 00:59:06 05:23 11.15
94 28 FREDERIC HENROTAY VETERAN 1 32 00:59:09 05:23 11.14
95 27 ADRIEN BERTRAND SENIOR H 36 00:59:09 05:23 11.14
96 109 VINCENT COLLARD SENIOR H 37 00:59:11 05:23 11.14
97 248 NOAM XHONNEUX ESPOIR H 2 00:59:16 05:24 11.12
98 48 LUCIEN ARNOULD VETERAN 1 33 00:59:37 05:26 11.06
99 222 MARC SENARD VÉTÉRAN 2 11 00:59:51 05:27 11.01
100 16 AUDREY BALDEWYNS SENIOR D 8 00:59:52 05:27 11.01
101 62 ROBIN DONNE SENIOR H 38 00:59:58 05:28 10.99
102 122 STEPHANIE MOTTEN SENIOR D 9 00:59:59 05:28 10.99
103 221 NATHALIE ARNOULD AINÉE 1 5 00:59:59 05:28 10.99
104 220 DOMINIQUE VERLAINE VETERAN 1 34 00:59:59 05:28 10.99
105 23 STEVE COOLS SENIOR H 39 01:00:17 05:29 10.93
106 33 JACQUELINE COURTIN AINÉE 2 1 01:00:23 05:30 10.92
107 247 MARINA HIERNAUX AINÉE 1 6 01:00:29 05:30 10.90
108 108 MAXIME COLLARD SENIOR H 40 01:00:33 05:31 10.89
109 182 EMILE DEWAEGHENEIR SENIOR H 41 01:00:34 05:31 10.88
110 121 PIERRE BONNARD VETERAN 1 35 01:01:01 05:33 10.80
111 194 MICHEL PETERS VÉTÉRAN 2 12 01:01:01 05:33 10.80
112 176 LUC CRANINX VÉTÉRAN 2 13 01:01:18 05:35 10.75
113 67 OLIVIER DUROSELLE SENIOR H 42 01:01:28 05:36 10.72
114 167 LUCAS VERMOTE ESPOIR H 3 01:01:32 05:36 10.71
115 148 STEPHANE JOLIET SENIOR H 43 01:02:05 05:39 10.62
116 154 RUDI BONVARLEZ VÉTÉRAN 2 14 01:02:21 05:41 10.57
117 84 LAURENCE PETERS VETERAN 1 36 01:02:24 05:41 10.56
118 209 JACQUES CIAMMA SENIOR H 44 01:02:25 05:41 10.56
119 205 ARNAUD VERMOTTE SENIOR H 45 01:02:39 05:42 10.52
120 24 EDOUARD HALLEUX SENIOR H 46 01:03:07 05:45 10.44
121 25 SOLÈNE VANDEWEERD SENIOR D 10 01:03:07 05:45 10.44
122 246 LAURENT LESSUISE SENIOR H 47 01:03:22 05:46 10.40
123 250 AUDREY GOUAT SENIOR D 11 01:03:22 05:46 10.40
124 162 PHILIPPE DEFRERE VÉTÉRAN 2 15 01:03:28 05:47 10.39
125 188 JEAN-PASCAL ANCION VÉTÉRAN 2 16 01:03:37 05:47 10.36
126 129 MARIE-PAULE VANDEVOORDE AINÉE 3 1 01:03:44 05:48 10.34
127 155 PATRICK DUFLOT VETERAN 1 37 01:04:03 05:50 10.29
128 52 JOSIANE STIERNON AINÉE 3 2 01:04:14 05:51 10.26
129 14 MARC HAGELSTEENS VETERAN 1 38 01:04:14 05:51 10.26
130 251 BARBARA NADIN XXX   01:04:36 05:53 10.20
131 34 ANDRÉ WASSON VÉTÉRAN 2 17 01:04:37 05:53 10.20
132 76 FABIAN BALDO VÉTÉRAN 2 18 01:04:37 05:53 10.20
133 173 LAURA COMITO AINÉE 1 7 01:04:37 05:53 10.20
134 202 CECILE RICHARD AINÉE 2 2 01:04:41 05:53 10.19
135 204 PASCALE URBAIN AINÉE 1 8 01:04:42 05:53 10.19
136 89 FRANCISCO NAVARRO VETERAN 1 39 01:04:44 05:54 10.18
137 211 AMELIE NEUVILLE SENIOR D 12 01:05:28 05:58 10.07
138 195 JOY PIAZZA SENIOR D 13 01:05:28 05:58 10.07
139 224 THOMAS TOUSSAINT VÉTÉRAN 2 19 01:05:45 05:59 10.03
140 219 PASCALE MARTIN AINÉE 1 9 01:05:45 05:59 10.03
141 208 VANILLE SIMON SENIOR D 14 01:05:48 05:59 10.02
142 158 RUDY MORTELE VÉTÉRAN 2 20 01:06:04 06:01 9.98
143 73 CAROLINE FEKETE AINÉE 2 3 01:06:18 06:02 9.94
144 90 PHILIPPE FOURNY VETERAN 3 6 01:06:37 06:04 9.89
145 241 HENRY HARDY VÉTÉRAN 4 1 01:06:41 06:04 9.89
146 101 DAVID PILOTTI VETERAN 1 40 01:07:30 06:09 9.77
147 210 ANTOINE THIRION SENIOR H 48 01:07:34 06:09 9.76
148 185 RAPHAEL FRANKIGNOULL SENIOR H 49 01:07:41 06:10 9.74
149 183 JOSY POISQUET VETERAN 3 7 01:07:53 06:11 9.71
150 83 SEBASTIEN GUILLIAUME SENIOR H 50 01:08:02 06:12 9.69
151 186 LAURE POISQUET SENIOR D 15 01:08:10 06:12 9.67
152 234 DJIBRIL KOENER ESPOIR H 4 01:08:16 06:13 9.66
153 161 CHARLINE ROUCHET SENIOR D 16 01:08:44 06:15 9.59
154 146 CAROLINE ELAERTS SENIOR D 17 01:09:13 06:18 9.52
155 235 XAVIER LEUNUS SENIOR H 51 01:09:15 06:18 9.52
156 217 CHRISTOPHE SIMONIS SENIOR H 52 01:10:15 06:24 9.38
157 104 VIRGINIE SCHMITZ SENIOR D 18 01:15:29 06:52 8.73
158 215 FRANCK DETREZ VÉTÉRAN 2 21 01:15:50 06:54 8.69
159 213 ALINE DEFRESNE SENIOR D 19 01:15:51 06:54 8.69
160 99 JULIE HONY SENIOR D 20 01:17:16 07:02 8.53
161 160 SOPHIE VANHEYSTE SENIOR D 21 01:17:17 07:02 8.53
162 54 PATRICK JANSSEN VÉTÉRAN 2 22 01:17:25 07:03 8.51
163 60 VIRGINIE CRANINX SENIOR D 22 01:20:16 07:18 8.21
164 58 RAFFAELE SIGISMONDI VETERAN 1 41 01:20:17 07:18 8.21
165 87 MICHEL BABE VÉTÉRAN 2 23 01:23:55 07:38 7.86
166 42 VERONIQUE GRENSON AINÉE 2 4 01:24:36 07:42 7.79
167 190 VERONIQUE MEYERS AINÉE 1 10 01:24:39 07:42 7.79
168 237 AMANDINE KOENER ESPOIR D 1 01:27:33 07:58 7.53
169 152 LOUIS JAMOTTE ESPOIR H 5 01:27:33 07:58 7.53
170 114 SACHA EVRARD VÉTÉRAN 2 24 01:28:14 08:02 7.47
171 169 DELPHINE STRUZIK VETERAN 1 42 01:32:28 08:25 7.13
172 49 JOELLE SCHMETZ AINÉE 2 5 01:32:28 08:25 7.13
173 57 CAROLINE COLINET AINÉE 1 11 01:32:39 08:26 7.11